Погода в Салтыкове

Россия / Калужская область     54°48′20″N   37°11′58″E
темп.,
°C
ветер,
м/с
пор.,
м/с
влажн.,
%
обл.,
%
осадки,
мм/ч
давл.,
гПа
погр.,
м
13 апреля, вт
вт1300:00+10вюв5138895 0.0 1025276
03:00+9юв4118765 0.0 1025186
06:00+8ююв31083100 0.0 1025173
09:00+13ююв496391 0.0 1025320
12:00+18ююв694669 0.0 1024758
15:00+19ююв683463 0.0 10231620
18:00+17ююв474775 0.0 1022174
21:00+12юв411585 0.0 1022171
14 апреля, ср
ср1400:00+11ююв514595 0.0 1022286
03:00+10ююв4126563 0.0 1021236
06:00+8ююв397358 0.0 1021149
09:00+13ююв485682 0.0 1020313
12:00+17ююв5741100 0.0 1019773
15:00+18юв6732100 0.0 10181596
18:00+16юв3645100 0.0 1017150
21:00+12вюв3757100 0.0 1017100
15 апреля, чт
чт1500:00+10ююв3362100 0.0 101738
03:00+9вюв226264 0.0 101711
06:00+8в3364100 0.0 101625
09:00+12вюв3558100 0.0 1017255
12:00+16вюв3545100 0.0 1016708
15:00+18в5639100 0.0 10151180
18:00+15всв4751100 0.0 1015213
21:00+12всв4116296 0.0 1015197
16 апреля, пт
пт1600:00+10в3773100 0.1 1016138
03:00+8св4986100 0.1 1016195
06:00+9св51283100 0.0 1016442
09:00+10всв51179100 0.1 1017439
12:00+15всв795897 0.0 10171053
15:00+17всв795186 0.0 10171686
18:00+15всв71159100 0.3 1018888
21:00+11св7147183 0.6 1021663
17 апреля, сб
сб1700:00+8св6138370 0.0 1023494
03:00+6св613865 0.0 1024476
06:00+5св6138321 0.0 1025506
09:00+8всв813565 0.0 1026821
12:00+11всв811385 0.0 10261422
15:00+12всв810340 0.0 10271645
18:00+11всв610420 0.0 10271504
21:00+7св511570 0.0 1030354